Location: Celina Division
(33.3022°N, 96.7580°W)
Time: 04:35:26
(UTC+00:00)

Cosmos 1812 - Pass Details

Date: 01 July 2022
Orbit: 508 x 515 km, 82.5° (Epoch: 07 August)

Event Time Altitude Azimuth Distance (km) Brightness Sun altitude
Rises 08:39:00 0° 343° (NNW) 2,630 6.8 -25.9°
Reaches altitude 10° 08:41:15 10° 334° (NNW) 1,738 5.7 -25.6°
Enters shadow 08:42:37 19° 322° (NW) 1,253 4.8 -25.5°
